Flag for U.S.A. Weather past 2 weeks in Knoxville, Tennessee, U.S.A.

Now
67 °F

Partly sunny.


Feels Like: 67 °F
Forecast: 47 / 76 °F
Wind: No wind

Location: McGhee Tyson Airport


UV Index: 0 (Low)

Visibility: 10 mi


Pressure: 30.11 "Hg

Humidity: 32%

Dew point: 36 °F

Location of KnoxvilleLocation

Historic Weather in Knoxville

°F

Knoxville temperature yesterday

Maximum temperature yesterday: 65 °F (at 3:53 PM)
Minimum temperature yesterday: 51 °F (at 5:53 AM)
Average temperature yesterday: 57 °F

Past Weeks' High & Low Weather Summary

 TemperatureHumidityPressure
High82 °F (Apr 13, 3:53 PM)100% (Apr 7, 1:53 AM)30.42 "Hg (Apr 7, 1:53 AM)
Low31 °F (Apr 16, 5:53 AM)25% (Apr 11, 2:53 PM)29.52 "Hg (Apr 7, 4:53 PM)
Average57 °F60%30.04 "Hg
* Reported Apr 5 7:53 PM — Apr 20 7:53 PM, Knoxville, Weather by CustomWeather, © 2014

Note: Actual official high and low records may vary slightly from our data, if they occured in-between our weather recording intervals... More about our weather records

Advertising

Historic Weather Conditions — Data for Previous 24 hours

 ConditionsComfort  
Time TempWeatherWind HumidityBarometerVisibility
7:53 PM
Apr 20
70 °FScattered clouds.6 mph29%30.10 "Hg10 mi
6:53 PM74 °FPassing clouds.6 mph27%30.11 "Hg10 mi
5:53 PM75 °FSunny.7 mph28%30.11 "Hg10 mi
4:53 PM75 °FPassing clouds.8 mph28%30.12 "Hg10 mi
3:53 PM75 °FPassing clouds.7 mph31%30.14 "Hg10 mi
2:53 PM73 °FPassing clouds.5 mph33%30.16 "Hg10 mi
1:53 PM71 °FSunny.6 mph41%30.19 "Hg10 mi
12:53 PM68 °FPassing clouds.3 mph44%30.21 "Hg10 mi
11:53 AM65 °FPassing clouds.6 mph51%30.23 "Hg10 mi
9:53 AM57 °FScattered clouds.5 mph69%30.24 "Hg10 mi
9:00 AM51 °FFog.3 mph92%30.25 "Hg3 mi
7:58 AM46 °FFog.No wind100%30.25 "Hg2 mi
7:00 AM45 °FFog.3 mph97%30.23 "Hg3 mi
5:53 AM46 °FFog.No wind96%30.21 "Hg1 mi
4:53 AM48 °FFog.3 mph96%30.19 "Hg6 mi
3:53 AM49 °FPassing clouds.No wind97%30.18 "Hg6 mi
2:53 AM50 °FPassing clouds.No wind96%30.15 "Hg7 mi
1:53 AM50 °FPassing clouds.3 mph93%30.16 "Hg8 mi
11:53 PM
Apr 19
53 °FPassing clouds.No wind93%30.17 "Hg10 mi
10:53 PM54 °FPassing clouds.No wind93%30.17 "Hg10 mi
9:53 PM55 °FPassing clouds.5 mph90%30.16 "Hg10 mi
Weather by CustomWeather, © 2014

See weather overview